FLE726 CYYJ-CYEG

Flight info

Callsign FLE726
Flight time N/A
Altitude 37000
Route SQURL DCT DAPED DCT PETLI DCT ROMRA Q949 ELLKS ELLKS3
Aircraft B738/M-SDE2E3FGHIRWXY/LB1

Departure

Time 2026-04-26 22:58
Airport Victoria International Airport (CYYJ)

Arrival

Time N/A
Airport Edmonton International Airport (CYEG)
Time Latitude Longitude Altitude Speed Heading
2026-04-26 22:36 48.64131 -123.43236 54 ft 0 kts 188°
2026-04-26 22:49 48.64140 -123.43234 53 ft 4 kts 188°
2026-04-26 22:49 48.64166 -123.43228 53 ft 4 kts 191°
2026-04-26 22:50 48.64185 -123.43223 58 ft 3 kts 178°
2026-04-26 22:50 48.64211 -123.43221 57 ft 4 kts 198°
2026-04-26 22:50 48.64229 -123.43204 52 ft 1 kts 238°
2026-04-26 22:50 48.64229 -123.43203 52 ft 0 kts 238°
2026-04-26 22:52 48.64226 -123.43211 54 ft 3 kts 238°
2026-04-26 22:52 48.64207 -123.43271 58 ft 10 kts 257°
2026-04-26 22:53 48.64217 -123.43405 57 ft 14 kts 280°
2026-04-26 22:53 48.64282 -123.43473 59 ft 13 kts 25°
2026-04-26 22:53 48.64353 -123.43373 58 ft 15 kts 44°
2026-04-26 22:53 48.64428 -123.43264 57 ft 15 kts 44°
2026-04-26 22:54 48.64506 -123.43151 58 ft 16 kts 43°
2026-04-26 22:54 48.64585 -123.43042 55 ft 15 kts 28°
2026-04-26 22:54 48.64681 -123.43074 58 ft 14 kts 332°
2026-04-26 22:54 48.64768 -123.43143 55 ft 14 kts 332°
2026-04-26 22:55 48.64850 -123.43209 59 ft 13 kts 332°
2026-04-26 22:55 48.64929 -123.43279 57 ft 13 kts 316°
2026-04-26 22:55 48.64962 -123.43401 57 ft 12 kts 286°
2026-04-26 22:55 48.64985 -123.43524 59 ft 12 kts 285°
2026-04-26 22:56 48.65008 -123.43646 55 ft 12 kts 286°
2026-04-26 22:56 48.65030 -123.43766 59 ft 12 kts 285°
2026-04-26 22:56 48.65053 -123.43850 59 ft 4 kts 317°
2026-04-26 22:56 48.65061 -123.43858 61 ft 4 kts 325°
2026-04-26 22:57 48.65106 -123.43900 59 ft 9 kts 332°
2026-04-26 22:57 48.65163 -123.43909 53 ft 8 kts 31°
2026-04-26 22:57 48.65160 -123.43825 52 ft 10 kts 106°
2026-04-26 22:57 48.65091 -123.43463 57 ft 73 kts 106°
2026-04-26 22:58 48.64882 -123.42369 58 ft 141 kts 106°
2026-04-26 22:58 48.64575 -123.40774 472 ft 164 kts 108°
2026-04-26 22:58 48.64263 -123.39094 1243 ft 175 kts 104°
2026-04-26 22:58 48.63967 -123.37175 1663 ft 204 kts 103°
2026-04-26 22:59 48.63609 -123.34955 1907 ft 231 kts 104°
2026-04-26 22:59 48.63190 -123.32525 2343 ft 246 kts 105°
2026-04-26 22:59 48.62727 -123.29911 2709 ft 265 kts 103°
2026-04-26 22:59 48.62227 -123.27221 3615 ft 265 kts 103°
2026-04-26 23:00 48.61729 -123.24532 4537 ft 267 kts 105°
2026-04-26 23:00 48.61189 -123.21824 5407 ft 271 kts 104°
2026-04-26 23:00 48.60657 -123.19064 6231 ft 276 kts 103°
2026-04-26 23:00 48.60061 -123.16265 6998 ft 282 kts 105°
2026-04-26 23:01 48.59495 -123.13413 7834 ft 284 kts 103°
2026-04-26 23:01 48.58940 -123.10524 8587 ft 289 kts 104°
2026-04-26 23:01 48.58366 -123.07597 8956 ft 292 kts 104°
2026-04-26 23:01 48.57783 -123.04644 8995 ft 294 kts 104°
2026-04-26 23:02 48.57372 -123.01705 9001 ft 288 kts 85°
2026-04-26 23:02 48.57980 -122.98898 9331 ft 284 kts 49°
2026-04-26 23:02 48.59420 -122.96901 10196 ft 280 kts 37°
2026-04-26 23:02 48.60985 -122.95046 10688 ft 296 kts 36°
2026-04-26 23:03 48.62700 -122.93109 10845 ft 319 kts 34°
2026-04-26 23:03 48.64566 -122.91078 11035 ft 342 kts 34°
2026-04-26 23:03 48.66544 -122.88909 11336 ft 358 kts 34°
2026-04-26 23:03 48.68572 -122.86655 11941 ft 364 kts 35°
2026-04-26 23:04 48.70614 -122.84358 12714 ft 367 kts 35°
2026-04-26 23:04 48.72667 -122.82028 13461 ft 369 kts 35°
2026-04-26 23:04 48.74734 -122.79673 14107 ft 373 kts 35°
2026-04-26 23:04 48.76809 -122.77301 14767 ft 375 kts 35°
2026-04-26 23:05 48.78892 -122.74915 15438 ft 376 kts 35°
2026-04-26 23:05 48.80884 -122.72384 16058 ft 382 kts 44°
2026-04-26 23:05 48.82522 -122.69155 16584 ft 389 kts 50°
2026-04-26 23:05 48.84338 -122.66110 17176 ft 390 kts 41°
2026-04-26 23:06 48.86353 -122.63335 17810 ft 391 kts 39°
2026-04-26 23:06 48.88417 -122.60625 18388 ft 393 kts 38°
2026-04-26 23:06 48.90487 -122.57896 18939 ft 395 kts 39°
2026-04-26 23:06 48.92549 -122.55124 19524 ft 395 kts 39°
2026-04-26 23:07 48.94592 -122.52320 20094 ft 396 kts 39°
2026-04-26 23:07 48.96630 -122.49477 20631 ft 398 kts 40°
2026-04-26 23:07 48.98662 -122.46609 21158 ft 399 kts 40°
2026-04-26 23:07 49.00694 -122.43719 21655 ft 402 kts 40°
2026-04-26 23:08 49.02746 -122.40785 22061 ft 404 kts 40°
2026-04-26 23:08 49.04796 -122.37847 22652 ft 403 kts 39°
2026-04-26 23:08 49.06812 -122.34950 23170 ft 404 kts 39°
2026-04-26 23:08 49.08862 -122.32003 23590 ft 406 kts 39°
2026-04-26 23:09 49.10920 -122.29040 23951 ft 408 kts 39°
2026-04-26 23:09 49.12987 -122.26062 24319 ft 409 kts 39°
2026-04-26 23:09 49.15061 -122.23070 24681 ft 410 kts 39°
2026-04-26 23:09 49.17135 -122.20074 25034 ft 412 kts 39°
2026-04-26 23:10 49.19221 -122.17057 25369 ft 412 kts 39°
2026-04-26 23:10 49.21305 -122.14038 25725 ft 413 kts 39°
2026-04-26 23:10 49.23398 -122.11004 26037 ft 415 kts 39°
2026-04-26 23:10 49.25500 -122.07954 26345 ft 417 kts 39°
2026-04-26 23:11 49.27608 -122.04891 26658 ft 419 kts 39°
2026-04-26 23:11 49.29719 -122.01819 26988 ft 419 kts 39°
2026-04-26 23:11 49.31817 -121.98762 27338 ft 420 kts 39°
2026-04-26 23:11 49.33934 -121.95667 27733 ft 420 kts 39°
2026-04-26 23:12 49.36032 -121.92562 28121 ft 419 kts 39°
2026-04-26 23:12 49.38112 -121.89409 28422 ft 421 kts 40°
2026-04-26 23:12 49.40195 -121.86219 28523 ft 426 kts 40°